Rockport, TX

1:24 AM CDT on April 23, 2018 (GMT -0500)
Aransas County

Weather History for KRKP - March, 2013

Change the Weather History Date:

Tuesday, March 26, 2013

  Actual Average Record
Temperature  
Mean Temperature 56 °F -  
Max Temperature 66 °F 73 °F 84 °F (1982)
Min Temperature 48 °F 60 °F 39 °F (1965)
Degree Days  
Heating Degree Days 9    
Growing Degree Days 6 (Base 50)    
Moisture  
Dew Point 31 °F    
Average Humidity 39    
Maximum Humidity 54    
Minimum Humidity 21    
Precipitation  
Precipitation 0.00 in - - ()
Sea Level Pressure  
Sea Level Pressure 30.40 in    
Wind  
Wind Speed 12 mph (East)    
Max Wind Speed 16 mph    
Max Gust Speed 21 mph    
Visibility 10 miles    
Events      
Averages and records for this station are not official NWS values.
T = Trace of Precipitation, MM = Missing Value Source: NWS Daily Summary

Daily Weather History Graph

Daily Weather History Graph

Search for Another Location

Airport or City:

Astronomy

Mar. 26, 2013 Rise Set
Actual Time 7:24 AM CDT 7:42 PM CDT
Civil Twilight 7:01 AM CDT 8:06 PM CDT
Nautical Twilight 6:33 AM CDT 8:33 PM CDT
Astronomical Twilight 6:06 AM CDT 9:01 PM CDT
Moon 7:19 PM CDT (3/26) 6:40 AM CDT (3/26)
Length of Visible Light 13h 05m
Length of Day
12h 18m
Waxing Gibbous, 99% of the Moon is Illuminated
Mar 26
Waxing Gibbous
Mar 27
Full
Apr 2
Last Quarter
Apr 10
New
Apr 18
First Quarter

Hourly Weather History & Observations

Time (CDT) Temp. Dew Point Humidity Pressure Visibility Wind Dir Wind Speed Gust Speed Precip Events Conditions
12:53 AM 55.0 °F 32.0 °F 42% 30.37 in 10.0 mi ENE 12.7 mph - N/A   Clear
1:53 AM 53.1 °F 34.0 °F 48% 30.38 in 10.0 mi NE 9.2 mph - N/A   Clear
2:53 AM 53.1 °F 30.9 °F 43% 30.38 in 10.0 mi NE 11.5 mph 20.7 mph N/A   Clear
3:53 AM 51.1 °F 32.0 °F 48% 30.38 in 10.0 mi ENE 12.7 mph - N/A   Clear
4:53 AM 50.0 °F 30.9 °F 48% 30.38 in 10.0 mi NE 15.0 mph - N/A   Clear
5:53 AM 48.9 °F 30.9 °F 50% 30.40 in 10.0 mi NE 11.5 mph - N/A   Clear
6:53 AM 48.9 °F 33.1 °F 54% 30.41 in 10.0 mi NE 10.4 mph - N/A   Clear
7:53 AM 51.1 °F 34.0 °F 52% 30.44 in 10.0 mi NE 12.7 mph 19.6 mph N/A   Clear
8:53 AM 54.0 °F 33.1 °F 45% 30.47 in 10.0 mi NE 11.5 mph - N/A   Clear
9:53 AM 57.9 °F 32.0 °F 37% 30.48 in 10.0 mi ENE 12.7 mph - N/A   Clear
10:53 AM 61.0 °F 34.0 °F 36% 30.48 in 10.0 mi East 13.8 mph - N/A   Clear
11:53 AM 63.0 °F 25.0 °F 24% 30.47 in 10.0 mi East 13.8 mph - N/A   Clear
12:53 PM 64.0 °F 24.1 °F 22% 30.45 in 10.0 mi East 15.0 mph - N/A   Clear
1:53 PM 64.9 °F 26.1 °F 23% 30.43 in 10.0 mi East 16.1 mph - N/A   Clear
2:53 PM 64.9 °F 24.1 °F 21% 30.39 in 10.0 mi East 16.1 mph - N/A   Clear
3:53 PM 64.0 °F 26.1 °F 24% 30.36 in 10.0 mi East 12.7 mph - N/A   Clear
4:53 PM 63.0 °F 30.9 °F 30% 30.35 in 10.0 mi SE 13.8 mph - N/A   Clear
5:53 PM 61.0 °F 30.9 °F 32% 30.34 in 10.0 mi SE 12.7 mph - N/A   Clear
6:53 PM 60.1 °F 32.0 °F 35% 30.34 in 10.0 mi SE 11.5 mph - N/A   Clear
7:53 PM 57.0 °F 33.1 °F 40% 30.35 in 10.0 mi SSE 8.1 mph - N/A   Clear
8:53 PM 57.0 °F 35.1 °F 44% 30.35 in 10.0 mi SSE 5.8 mph - N/A   Clear
9:53 PM 57.0 °F 34.0 °F 42% 30.36 in 10.0 mi SSE 8.1 mph - N/A   Clear
10:53 PM 57.9 °F 35.1 °F 42% 30.37 in 10.0 mi SSE 8.1 mph - N/A   Clear
11:53 PM 57.9 °F 36.0 °F 44% 30.36 in 10.0 mi SSE 5.8 mph - N/A   Clear